Voltar ao catálogo

SKYNET 4D

AtivoMilitarGEO
NORAD 25134·PAYLOAD·🇬🇧 United Kingdom

Lançado Jan 10, 1998 de Cape Canaveral Space Force Station

Loading…

TLE

AtualizadoSource: Space-Track

Época: Sep 14, 2026, 09:28 UTC

1 25134U 98002A   26257.39460730 -.00000034  00000-0  00000-0 0  9996
2 25134  12.8759  10.1963 0005689 184.6271 204.4478  0.99150984104263

Acompanhe SKYNET 4D em tempo real com AllMySat

Download on the App Store